Weather History for KSLK - April, 2014

Change the Weather History Date:

Saturday, April 26, 2014

  Actual Average Record
Temperature  
Mean Temperature 38 °F 43 °F  
Max Temperature 41 °F 56 °F 82 °F (1990)
Min Temperature 35 °F 30 °F 19 °F (2001)
Degree Days  
Heating Degree Days 27 22  
Month to date heating degree days 719 724  
Since 1 July heating degree days 9255 8686  
Cooling Degree Days 0 0  
Month to date cooling degree days 0 0  
Year to date cooling degree days 0 0  
Moisture  
Dew Point 36 °F    
Average Humidity 93    
Maximum Humidity 100    
Minimum Humidity 85    
Precipitation  
Precipitation 0.25 in 0.10 in 1.27 in (2011)
Month to date precipitation 2.64 2.46  
Year to date precipitation 6.89 8.48  
Sea Level Pressure  
Sea Level Pressure 29.71 in    
Wind  
Wind Speed 6 mph (WSW)    
Max Wind Speed 15 mph    
Max Gust Speed 19 mph    
Visibility 6 miles    
Events Rain    
T = Trace of Precipitation, MM = Missing Value Source: NWS Daily Summary

Daily Weather History Graph

Daily Weather History Graph

Search for Another Location

Airport or City:

Trip Planner

Search our weather history database for the weather conditions in past years. The results will help you decide how hot, cold, wet, or windy it might be!

Date:

Astronomy

Apr. 26, 2014 Rise Set
Actual Time 5:55 AM EDT 7:54 PM EDT
Civil Twilight 5:23 AM EDT 8:26 PM EDT
Nautical Twilight 4:45 AM EDT 9:05 PM EDT
Astronomical Twilight 4:03 AM EDT 9:47 PM EDT
Moon 4:24 AM EDT (4/26) 5:14 PM EDT (4/26)
Length of Visible Light 15h 02m
Length of Day
13h 59m
Waning Crescent, 8% of the Moon is Illuminated
Apr 26
Waning Crescent
Apr 29
New
May 6
First Quarter
May 14
Full
May 21
Last Quarter

Hourly Weather History & Observations

Time (EDT) Temp. Windchill Dew Point Humidity Pressure Visibility Wind Dir Wind Speed Gust Speed Precip Events Conditions
12:51 AM 42.1 °F 39.2 °F 32.0 °F 67% 29.73 in 6.0 mi Variable 4.6 mph - 0.00 in Rain Rain
12:59 AM 39.9 °F 33.9 °F 34.0 °F 79% 29.70 in 4.0 mi WSW 9.2 mph - 0.02 in Rain Rain
2:51 AM 36.0 °F 32.1 °F 35.1 °F 97% 29.67 in 5.0 mi NE 4.6 mph - 0.10 in Rain Rain
3:51 AM 37.0 °F 34.5 °F 35.1 °F 93% 29.66 in 5.0 mi ENE 3.5 mph - 0.02 in   Overcast
4:51 AM 37.0 °F 34.5 °F 36.0 °F 96% 29.64 in 8.0 mi ENE 3.5 mph - 0.01 in   Overcast
5:51 AM 36.0 °F 31.1 °F 35.1 °F 97% 29.64 in 7.0 mi ENE 5.8 mph - 0.01 in   Overcast
6:10 AM 36.0 °F 31.1 °F 35.1 °F 97% 29.62 in 8.0 mi NE 5.8 mph - 0.00 in   Overcast
6:51 AM 36.0 °F 33.3 °F 35.1 °F 97% 29.66 in 5.0 mi NE 3.5 mph - 0.00 in   Overcast
7:51 AM 37.0 °F - 36.0 °F 96% 29.67 in 4.0 mi Calm Calm - 0.00 in   Overcast
8:04 AM 37.9 °F - 36.0 °F 93% 29.64 in 4.0 mi Calm Calm - N/A   Overcast
8:13 AM 37.9 °F - 37.0 °F 97% 29.64 in 4.0 mi Calm Calm - 0.01 in Rain Light Rain
8:37 AM 37.9 °F 35.5 °F 37.0 °F 97% 29.65 in 4.0 mi SW 3.5 mph - 0.01 in Rain Light Rain
8:51 AM 39.0 °F 34.0 °F 37.9 °F 96% 29.68 in 4.0 mi SSW 6.9 mph - 0.01 in   Overcast
9:51 AM 39.9 °F 33.4 °F 37.9 °F 93% 29.68 in 10.0 mi SW 10.4 mph - N/A   Overcast
10:17 AM 39.0 °F 32.3 °F 37.0 °F 93% 29.66 in 4.0 mi WSW 10.4 mph - N/A   Overcast
10:51 AM 37.9 °F 30.5 °F 36.0 °F 93% 29.70 in 10.0 mi SW 11.5 mph - N/A   Overcast
11:24 AM 37.9 °F 30.5 °F 36.0 °F 93% 29.67 in 4.0 mi SW 11.5 mph - 0.00 in Rain Light Rain
12:18 PM 37.9 °F 32.7 °F 37.0 °F 97% 29.66 in 7.0 mi SW 6.9 mph - N/A   Overcast
12:51 PM 39.0 °F 35.7 °F 37.9 °F 96% 29.69 in 6.0 mi SW 4.6 mph - N/A   Overcast
1:44 PM 41.0 °F 35.2 °F 37.9 °F 89% 29.67 in 10.0 mi WSW 9.2 mph - N/A   Overcast
1:51 PM 41.0 °F 34.3 °F 39.0 °F 93% 29.70 in 10.0 mi SW 11.5 mph - N/A   Overcast
1:58 PM 41.0 °F 36.4 °F 37.9 °F 89% 29.67 in 10.0 mi WSW 6.9 mph 19.6 mph N/A   Overcast
2:05 PM 41.0 °F 35.8 °F 37.0 °F 86% 29.67 in 10.0 mi SW 8.1 mph - N/A   Overcast
2:40 PM 41.0 °F 34.3 °F 37.0 °F 86% 29.68 in 10.0 mi SW 11.5 mph - N/A   Overcast
2:51 PM 41.0 °F 34.3 °F 37.0 °F 86% 29.72 in 10.0 mi SW 11.5 mph - N/A   Overcast
3:29 PM 39.9 °F 33.9 °F 36.0 °F 86% 29.68 in - SW 9.2 mph - N/A   Unknown
3:51 PM 39.9 °F 34.5 °F 36.0 °F 86% 29.73 in 10.0 mi West 8.1 mph - N/A   Unknown
4:00 PM 39.9 °F 35.1 °F 36.0 °F 86% 29.69 in 10.0 mi West 6.9 mph - N/A   Overcast
4:46 PM 39.2 °F 35.0 °F 35.6 °F 87% 29.70 in 9.0 mi West 5.8 mph - N/A   Overcast
5:51 PM 39.0 °F 36.8 °F 37.0 °F 93% 29.76 in 2.5 mi WSW 3.5 mph - N/A   Mist
6:04 PM 39.0 °F 34.8 °F 37.0 °F 93% 29.73 in 1.8 mi Variable 5.8 mph - 0.01 in Rain Light Rain
6:12 PM 37.9 °F 34.4 °F 37.0 °F 97% 29.73 in 3.0 mi West 4.6 mph - 0.01 in Rain Light Rain
6:21 PM 37.9 °F 33.5 °F 37.0 °F 97% 29.74 in 2.5 mi West 5.8 mph - 0.01 in Rain Light Rain
6:26 PM 37.9 °F 33.5 °F 37.0 °F 97% 29.74 in 1.8 mi West 5.8 mph - 0.01 in Rain Light Rain
6:44 PM 37.9 °F 33.5 °F 37.0 °F 97% 29.75 in 2.0 mi WSW 5.8 mph - 0.01 in   Overcast
6:51 PM 37.9 °F 34.4 °F 37.0 °F 97% 29.79 in 2.0 mi WSW 4.6 mph - 0.01 in   Overcast
7:00 PM 37.9 °F 34.4 °F 37.0 °F 97% 29.75 in 3.0 mi West 4.6 mph - N/A   Overcast
7:25 PM 37.9 °F 34.4 °F 36.0 °F 93% 29.76 in 2.5 mi Variable 4.6 mph - 0.00 in Rain Light Rain
7:34 PM 37.0 °F 34.5 °F 36.0 °F 96% 29.76 in 4.0 mi Variable 3.5 mph - 0.00 in Rain Light Rain
7:43 PM 37.0 °F - 36.0 °F 96% 29.77 in - North - - 0.00 in   Unknown
7:51 PM 37.0 °F - 36.0 °F 96% 29.81 in - North - - 0.00 in   Unknown
8:51 PM 36.0 °F - 34.0 °F 93% 29.83 in - North - - 0.00 in   Unknown
9:51 PM 35.1 °F - 34.0 °F 96% 29.85 in - North - - N/A   Unknown
10:51 PM - - - N/A% 29.81 in - North - - N/A   Unknown
11:51 PM 35.1 °F - 35.1 °F 100% 29.86 in - North - - N/A   Unknown